Orbital Elements at Epoch 2459200.5 (2020-Dec-17.0) TDB
Reference: JPL 19 (heliocentric ecliptic J2000)
Element | Value | Uncertainty (1-sigma) | Units |
e | .2597642174225469 | 4.6453e-08 | |
a | 2.364059561268646 | 1.316e-08 | au |
q | 1.749961479395407 | 1.1289e-07 | au |
i | 11.14636683952637 | 5.3367e-06 | deg |
node | 235.9147993687987 | 3.0244e-05 | deg |
peri | 49.72269753685887 | 3.2864e-05 | deg |
M | 243.0786651486461 | 1.6715e-05 | deg |
tp | 2459631.698570353890 (2022-Feb-21.19857035) | 6.3818e-05 | TDB |
period | 1327.657484622046 3.63 | 1.1086e-05 3.035e-08 | d yr |
n | .2711542729731108 | 2.2641e-09 | deg/d |
Q | 2.978157643141885 | 1.6578e-08 | au |
|
| | Orbit Determination Parameters
Additional Information
|